Regional Weather Roundup
Issued by NWS

Home | Current Version | Previous Version | Graphics & Text | Print | Product List | Glossary On
Versions: 1 2 3 4 5 6 7 8 9 10 11 12 13 14 15 16 17 18 19 20 21 22 23 24 25 26 27 28 29 30 31 32 33 34 35 36 37 38 39 40 41 42 43 44 45 46 47 48 49 50
000
ASUS43 KMKX 220611
RWRWI

WISCONSIN REGIONAL WEATHER ROUNDUP
NATIONAL WEATHER SERVICE MILWAUKEE/SULLIVAN WI
100 AM CDT FRI AUG 22 2014

NOTE: "FAIR" INDICATES FEW OR NO CLOUDS BELOW 12,000 FEET WITH NO
SIGNIFICANT WEATHER AND/OR OBSTRUCTIONS TO VISIBILITY.

WIZ001-002-006>008-014>016-023>028-220700-
NORTHWEST WISCONSIN

CITY           SKY/WX    TMP DP  RH WIND       PRES   REMARKS
SUPERIOR ARPT  CLOUDY    61  60  98 E10G16    29.91S FOG
6HR MIN TEMP:  61; 6HR MAX TEMP:  61; 6HR PCP:  0.01;

ASHLAND        CLOUDY    65  63  93 NE3       29.91S
6HR MIN TEMP:  65; 6HR MAX TEMP:  65;

HAYWARD        CLOUDY    69  68  96 CALM      29.90R
6HR MIN TEMP:  69; 6HR MAX TEMP:  72;

SIREN          CLOUDY    71  70  96 CALM      29.88R
6HR MIN TEMP:  71; 6HR MAX TEMP:  73;

RICE LAKE      FAIR      69  68  95 CALM      29.89S FOG
6HR MIN TEMP:  69; 6HR MAX TEMP:  72; 6HR PCP:  0.02;

LADYSMITH      CLOUDY    70  68  95 SE6       29.92R FOG
6HR MIN TEMP:  69; 6HR MAX TEMP:  72; 6HR PCP:  0.26;

EAU CLAIRE     FAIR      73  72  96 SE6       29.86S
6HR MIN TEMP:  73; 6HR MAX TEMP:  78;

MENOMONIE      FAIR      72  70  96 SE5       29.86S FOG
6HR MIN TEMP:  72; 6HR MAX TEMP:  78;

NEW RICHMOND   FAIR      69  69  99 N5        29.86S FOG
6HR MIN TEMP:  69; 6HR MAX TEMP:  75;

OSCEOLA        FOG       69  69 100 CALM      29.88S VSB 1/2
6HR MIN TEMP:  69; 6HR MAX TEMP:  74;

$$

WIZ003>005-009-010-017-018-220700-
NORTH CENTRAL WISCONSIN

CITY           SKY/WX    TMP DP  RH WIND       PRES   REMARKS
WOODRUFF       CLOUDY    65  63  91 SE5       29.95F
6HR MIN TEMP:  65; 6HR MAX TEMP:  69;

RHINELANDER    CLOUDY    63  62  97 SE6       29.97S
6HR MIN TEMP:  63; 6HR MAX TEMP:  67; 6HR PCP:  0.02;

EAGLE RIVER    CLOUDY    64  63  96 SE3       29.96S
6HR MIN TEMP:  64; 6HR MAX TEMP:  66;

LAND O LAKES   LGT RAIN  64  63  95 SE3       29.97F
6HR MIN TEMP:  64; 6HR MAX TEMP:  67; 6HR PCP:  0.01;

PHILLIPS       CLOUDY    65  65  98 SE5       29.93R FOG
6HR MIN TEMP:  65; 6HR MAX TEMP:  67;

TOMAHAWK       CLOUDY    64  62  95 SE3       29.95S FOG
6HR MIN TEMP:  64; 6HR MAX TEMP:  66;

MEDFORD        FOG       65  65 100 E7        29.93S VSB 1/2
6HR MIN TEMP:  65; 6HR MAX TEMP:  67;

MERRILL        CLOUDY    65  65 100 E3        29.94F FOG
6HR MIN TEMP:  65; 6HR MAX TEMP:  67;

$$

WIZ029-030-035-036-043>047-220700-
CENTRAL WISCONSIN

CITY           SKY/WX    TMP DP  RH WIND       PRES   REMARKS
WAUSAU         CLOUDY    65  65 100 E8        29.93S FOG
6HR MIN TEMP:  65; 6HR MAX TEMP:  68;

MOSINEE        FOG       64  64 100 E5        29.95S VSB 3/4
MARSHFIELD     CLOUDY    72  70  93 E9        29.92S FOG
6HR MIN TEMP:  71; 6HR MAX TEMP:  76;

STEVENS POINT  CLOUDY    66  65  97 E5        29.94S FOG
6HR MIN TEMP:  66; 6HR MAX TEMP:  69;

WAUPACA        CLOUDY    71  69  94 CALM      29.94S FOG
6HR MIN TEMP:  71; 6HR MAX TEMP:  74;

WAUTOMA        CLOUDY    70  69  96 CALM      29.93F FOG
6HR MIN TEMP:  69; 6HR MAX TEMP:  77;

WISC RAPIDS    CLOUDY    71  69  93 SE6       29.93F
6HR MIN TEMP:  71; 6HR MAX TEMP:  75;

CAMP DOUGLAS   FOG       70  70 100 E3        29.91F VSB 1/2
6HR MIN TEMP:  68; 6HR MAX TEMP:  77;

$$

WIZ011>013-019>022-031-037>040-048>050-220700-
NORTHEAST WISCONSIN

CITY           SKY/WX    TMP DP  RH WIND       PRES   REMARKS
ANTIGO         CLOUDY    63  62  99 SE7       29.97S FOG
6HR MIN TEMP:  63; 6HR MAX TEMP:  64;

STURGEON BAY   CLOUDY    64  63  94 SE3       29.96F
6HR MIN TEMP:  64; 6HR MAX TEMP:  66;

GREEN BAY      CLOUDY    67  65  93 NE5       29.94F
6HR MIN TEMP:  66; 6HR MAX TEMP:  69; 6HR PCP: TRACE;

MANITOWOC      FOG      N/A N/A N/A CALM      29.94F VSB 1
6HR MIN TEMP:  66; 6HR MAX TEMP:  66; 6HR PCP: TRACE;

APPLETON       CLOUDY    68  66  94 SE3       29.94F FOG
CLINTONVILLE   CLOUDY    66  64  94 E3        29.94S FOG
OSHKOSH        CLOUDY    71  69  93 S5        29.92F FOG
6HR MIN TEMP:  69; 6HR MAX TEMP:  72;

$$

WIZ032>034-041-042-053>061-220700-
SOUTHWEST WISCONSIN

CITY           SKY/WX    TMP DP  RH WIND       PRES   REMARKS
LA CROSSE      FAIR      76  71  85 S7        29.87F
6HR MIN TEMP:  75; 6HR MAX TEMP:  82;

SPARTA         FAIR      69  67  95 CALM      29.90F FOG
6HR MIN TEMP:  69; 6HR MAX TEMP:  78;

VIROQUA        FAIR      71  71 100 SE5       29.91F
6HR MIN TEMP:  71; 6HR MAX TEMP:  78;

BOSCOBEL       FOG       71  69  93 CALM      29.90F VSB 1/2
6HR MIN TEMP:  71; 6HR MAX TEMP:  80;

PRAIRIE DU CHI FAIR      72  69  92 CALM      29.89F
6HR MIN TEMP:  72; 6HR MAX TEMP:  78;

PLATTEVILLE    MOCLDY    73  72  96 E6        29.92F
6HR MIN TEMP:  72; 6HR MAX TEMP:  76;

$$

WIZ056-057-062-063-064-067-068-220700-
SOUTH CENTRAL WISCONSIN

CITY           SKY/WX    TMP DP  RH WIND       PRES   REMARKS
BARABOO/DELLS  FAIR      71  69  93 CALM      29.92F FOG
6HR MIN TEMP:  70; 6HR MAX TEMP:  76;

LONE ROCK      FAIR      74  70  87 CALM      29.91F FOG
6HR MIN TEMP:  74; 6HR MAX TEMP:  83;

WATERTOWN      FOG       70  70 100 CALM      29.92F VSB 1/2
6HR MIN TEMP:  70; 6HR MAX TEMP:  74;

MADISON        FAIR      74  72  93 SE5       29.91F
6HR MIN TEMP:  74; 6HR MAX TEMP:  77;

MIDDLETON      FAIR      72  72 100 CALM      29.92F
6HR MIN TEMP:  71; 6HR MAX TEMP:  79;

MONROE         RAIN      72  72 100 NE5       29.93F VSB 1/2
JANESVILLE     FAIR      72  70  94 CALM      29.91F FOG
$$

WIZ051-052-058>065-066-070>072-220700-
SOUTHEAST WISCONSIN

CITY           SKY/WX    TMP DP  RH WIND       PRES   REMARKS
MILWAUKEE      FOG       70  68  93 SE5       29.93F VSB 1/4
6HR MIN TEMP:  70; 6HR MAX TEMP:  74;

WAUKESHA       CLOUDY    68  68 100 CALM      29.95F FOG
MILWAUKEE/TIMM CLOUDY    70  66  88 CALM      29.94F FOG
RACINE         FOG       71  69  93 E3        29.94F VSB 1
6HR MIN TEMP:  70; 6HR MAX TEMP:  74;

BURLINGTON     CLOUDY    69  69  99 CALM      29.93F FOG
6HR MIN TEMP:  68; 6HR MAX TEMP:  74;

KENOSHA        LGT RAIN  71  71 100 E5        29.93F VSB 1/4
6HR MIN TEMP:  70; 6HR MAX TEMP:  73;

FOND DU LAC    CLOUDY    70  68  93 S7        29.93F FOG
6HR MIN TEMP:  70; 6HR MAX TEMP:  76;

SHEBOYGAN      FOG       67  66  97 CALM      29.94F VSB 1/4
6HR MIN TEMP:  67; 6HR MAX TEMP:  70;

WEST BEND      FOG       66  64  94 CALM      29.94F VSB 1/4
JUNEAU         MOCLDY    69  43  38 SE7       29.93F HAZE
6HR MIN TEMP:  69; 6HR MAX TEMP:  75;

$$

LSZ147-162-220700-
LAKE SUPERIOR

STATION/POSITION TIME  TEMP    WIND        PRES    WAVE
                       AIR SEA DIR/SP/G            HT/PER
                 (UTC) (F)     (DEG/KT/KT) (MB)    (FT/S)
W MID LAKE BUOY  0550   58 58   60/ 12/ 16 1013.5R   2/ 4
DEVILS ISLAND    0600   60      70/ 12/ 13 1013.2R
PORT WING        0500   62      30/ 10/ 13 1012.9S
SAXON HARBOR     0500   65        CALM     1012.5S
$$

LMZ867-665-643>646-220700-
LAKE MICHIGAN

STATION/POSITION TIME  TEMP    WIND        PRES    WAVE
                       AIR SEA DIR/SP/G            HT/PER
                 (UTC) (F)     (DEG/KT/KT) (MB)    (FT/S)
N MID LAKE BUOY  0550   65 65   60/  6/  6 1014.3R   0
NORTHPORT PIER   0500   66      CALM  /  2 1014.9R
SISTER BAY       0441   66     130/  6/  8   N/A
ALGOMA LAKESHORE 0438          120/  5/  6   N/A
KEWAUNEE LAKESHO 0500   66     150/  4/  5 1013.5R
SHEBOYGAN LAKESH 0600   66 64  150/  5/  5 1013.9F
ATWATER BUOY     0600   69     130/  6/  6 1014.5F
MILWAUKEE LAKESH 0500   69     170/  4/  6   N/A
S MID LAKE BUOY  0550   69 69   70/  4/  6 1013.8F   0
KENOSHA   LAKESH 0600   70      CALM  /  2 1013.2F
$$

TC  - TEMPERATURE IN CELSIUS
VSB - VISIBILITY IN STATUTE MILES
WCI - WIND CHILL INDEX
HX  - HEAT INDEX



USA.gov is the U.S. government's official web portal to all federal, state and local government web resources and services.